[[{"header":{"parameterUnit":"m.s-1","parameterCategory":1,"la1":30.2992,"la2":30.254,"lo1":-89.0895,"lo2":-89.0443,"dy":0.0025,"dx":0.0025,"nx":19,"ny":19,"refTime":"2026-03-24T21:00:00:Z","depth":0,"parameterNumber":2,"parameterNumberName":"U-component_of_WINDS"},"data":[0,0,0,-2.7057,-2.7059,-2.7139,-2.7139,-2.7253,-2.7254,0,0,0,0,0,0,0,0,0,0,0,-2.7039,-2.7039,-2.7057,-2.7059,-2.7139,-2.7139,-2.7253,-2.7254,0,0,0,0,0,0,0,0,0,0,0,-2.7038,-2.7039,-2.704,-2.7059,-2.7139,-2.7139,-2.7253,-2.7189,0,0,0,0,0,0,0,0,0,0,-2.7109,-2.7096,-2.7039,-2.704,-2.706,-2.7139,-2.714,-2.7185,-2.7193,-2.7221,0,-2.7246,0,-2.7252,-2.7262,-2.7263,0,0,0,-2.7056,-2.709,-2.7107,-2.7041,-2.7061,-2.7139,-2.7102,-2.7189,-2.7197,-2.7231,-2.7248,-2.7252,-2.7254,-2.7263,-2.7264,-2.7438,-2.7439,0,0,-2.7051,-2.7056,-2.7102,-2.7113,-2.71,-2.7099,-2.7105,-2.7194,-2.7214,-2.7248,-2.7254,-2.7256,-2.7264,-2.7265,-2.7437,-2.7438,0,0,0,-2.7041,-2.7053,-2.7067,-2.7108,-2.7122,-2.7102,-2.7108,-2.721,-2.7214,-2.7256,-2.7257,-2.7265,-2.7266,-2.7436,-2.7437,-2.7489,0,0,0,-2.7038,-2.7047,-2.7066,-2.7069,-2.712,-2.7166,-2.7121,-2.7208,-2.7218,-2.7257,-2.7265,-2.7267,-2.7435,-2.7437,-2.7486,-2.7513,0,0,0,-2.7032,-2.7046,-2.7059,-2.707,-2.7104,-2.7165,-2.7174,-2.721,-2.7219,-2.7263,-2.7268,-2.7434,-2.7436,-2.7482,-2.7507,-2.756,0,0,0,-2.7026,-2.7105,-2.706,-2.7149,-2.7103,-2.7197,-2.7173,-2.7243,-2.7287,-2.7265,-2.7435,-2.7437,-2.7481,-2.7504,-2.7556,-2.7604,-2.7624,0,0,-2.7128,-2.7117,-2.7169,-2.7132,-2.7233,-2.7184,-2.7294,-2.7331,-2.7331,-2.7403,-2.7407,-2.7487,-2.7507,-2.7559,-2.774,-2.7756,0,0,0,-2.7203,-2.724,-2.7266,-2.7308,-2.7337,-2.7365,-2.7384,-2.7398,-2.7459,-2.7368,-2.752,-2.7532,-2.7563,-2.7585,-2.7599,-2.7625,-2.7448,-2.7448,-2.7448,-2.7352,-2.7349,-2.7435,-2.7441,-2.7483,-2.7502,-2.7536,-2.7558,-2.7542,-2.7579,-2.7599,-2.7709,-2.7736,-2.7746,-2.7773,-2.7625,-2.7625,-2.7626,-2.7626,-2.75,-2.7552,-2.7531,-2.7606,-2.7603,-2.7667,-2.769,-2.7677,-2.7737,-2.7693,-2.772,-2.767,-2.7764,-2.7787,-2.763,-2.7629,-2.7629,-2.7628,-2.7628,-2.7596,-2.762,-2.7636,-2.7697,-2.7745,-2.7751,-2.7809,-2.7805,-2.7801,-2.7828,-2.7849,-2.7848,-2.7846,-2.7838,-2.7839,-2.7839,-2.784,-2.784,-2.784,-2.7689,-2.7705,-2.7754,-2.7794,-2.7821,-2.7856,-2.7879,-2.7906,-2.7935,-2.7927,-2.7927,-2.7909,-2.7774,-2.774,-2.7846,-2.7845,-2.7844,-2.7844,-2.7843,-2.7838,-2.7804,-2.788,-2.7907,-2.7954,-2.8003,-2.7997,-2.8053,-2.8075,-2.8105,-2.8082,-2.7983,-2.7972,-2.7961,-2.7932,-2.8082,-2.8082,-2.8082,-2.8082,-2.7918,-2.7913,-2.799,-2.8034,-2.8077,-2.808,-2.8168,-2.8187,-2.8202,-2.8216,-2.8195,-2.8157,-2.8146,-2.8141,-2.8126,-2.81,-2.8289,-2.8289,-2.8289,-2.8009,-2.8008,-2.8082,-2.8095,-2.8133,-2.8165,-2.8248,-2.8301,-2.8312,-2.8297,-2.8227,-2.8219,-2.8158,-2.8138,-2.812,-2.8097,-2.8048,0,0]},{"header":{"parameterUnit":"m.s-1","parameterCategory":1,"la1":30.2992,"la2":30.254,"lo1":-89.0895,"lo2":-89.0443,"dy":0.0025,"dx":0.0025,"nx":19,"ny":19,"refTime":"2026-03-24T21:00:00:Z","depth":0,"parameterNumber":3,"parameterNumberName":"V-component_of_WINDS"},"data":[0,0,0,2.7222,2.7222,2.7247,2.7247,2.7269,2.7269,0,0,0,0,0,0,0,0,0,0,0,2.721,2.721,2.7222,2.7222,2.7247,2.7247,2.7269,2.7269,0,0,0,0,0,0,0,0,0,0,0,2.721,2.721,2.721,2.7222,2.7247,2.7247,2.7269,2.7253,0,0,0,0,0,0,0,0,0,0,2.7231,2.7216,2.721,2.721,2.7222,2.7247,2.7247,2.7253,2.7254,2.7255,0,2.7254,0,2.7262,2.727,2.727,0,0,0,2.7225,2.7215,2.7226,2.721,2.7223,2.7246,2.7236,2.7254,2.7256,2.7257,2.7255,2.7256,2.7263,2.727,2.727,2.7264,2.7264,0,0,2.7224,2.7211,2.7224,2.7227,2.7223,2.7236,2.7237,2.7255,2.7252,2.7255,2.7256,2.7263,2.727,2.7271,2.7264,2.7264,0,0,0,2.7218,2.721,2.7221,2.7225,2.7231,2.7236,2.7238,2.7251,2.7255,2.7257,2.7263,2.7271,2.7271,2.7265,2.7264,2.7245,0,0,0,2.7217,2.7207,2.722,2.7213,2.723,2.7241,2.7233,2.7254,2.7257,2.7263,2.7271,2.7271,2.7265,2.7265,2.7246,2.7238,0,0,0,2.721,2.7206,2.7208,2.7212,2.7222,2.7241,2.7247,2.7255,2.726,2.727,2.7271,2.7265,2.7265,2.7247,2.7239,2.7233,0,0,0,2.7198,2.7189,2.7208,2.7201,2.7222,2.7229,2.7247,2.7252,2.7259,2.7271,2.7265,2.7264,2.7247,2.724,2.7234,2.7227,2.7222,0,0,2.718,2.7186,2.7183,2.7201,2.7202,2.7227,2.7225,2.7241,2.7252,2.7259,2.7259,2.7246,2.7239,2.7234,2.7202,2.7198,0,0,0,2.7173,2.7171,2.7174,2.7181,2.7194,2.7205,2.7224,2.723,2.7237,2.7254,2.7242,2.7239,2.7236,2.7233,2.723,2.7229,2.7262,2.7262,2.7263,2.7129,2.7147,2.7143,2.7163,2.7169,2.719,2.7196,2.7208,2.7221,2.7218,2.7221,2.7199,2.7195,2.7193,2.7191,2.7218,2.7218,2.7218,2.7218,2.7105,2.7105,2.7126,2.713,2.7148,2.7151,2.7171,2.7181,2.7186,2.7199,2.7197,2.7209,2.7189,2.7188,2.7216,2.7216,2.7217,2.7217,2.7217,2.7078,2.7081,2.7091,2.7103,2.7111,2.7131,2.7136,2.7152,2.7166,2.7165,2.7169,2.717,2.7172,2.7166,2.7166,2.7166,2.7166,2.7166,2.7166,2.7047,2.7058,2.7061,2.7077,2.7084,2.7095,2.7117,2.7124,2.7136,2.7147,2.7147,2.7161,2.7184,2.7189,2.7164,2.7165,2.7165,2.7165,2.7165,2.7016,2.7026,2.7031,2.7038,2.7059,2.7066,2.7086,2.71,2.7108,2.711,2.7125,2.714,2.7147,2.7149,2.7154,2.7122,2.7122,2.7122,2.7122,2.6994,2.7,2.7009,2.702,2.7033,2.7053,2.7057,2.7075,2.7093,2.71,2.7107,2.7114,2.7116,2.7122,2.7125,2.713,2.7092,2.7092,2.7092,2.6976,2.6985,2.6986,2.7007,2.7024,2.7039,2.7044,2.7055,2.7078,2.7091,2.7105,2.7106,2.7119,2.7122,2.7134,2.7138,2.7147,0,0]}]]